This demonstration page uses our WeatherBlox Daily Observations layout. Learn more.

Left ArrowRight Arrow

Hourly Observations for September 15, 2021

Temp ( °F °C ) Dew Point ( °F °C ) Humidity (%) Winds ( mph kmh ) Pressure ( in mb ) Visibility ( mi km ) Precip ( " mm )
12:51 am 00:51 Clear 73 22.8 47 8.3 40 40 NW 7 11 29.75 1008 10 16 N/A
1:51 am 01:51 Clear 73 22.8 47 8.3 40 40 WNW 6 9 29.75 1007 10 16 N/A
2:51 am 02:51 Clear 70 21.1 48 8.9 46 46 N N/A 29.76 1008 10 16 N/A
3:51 am 03:51 Clear 68 20 48 8.9 49 49 ENE 6 9 29.77 1008 10 16 N/A
4:51 am 04:51 Clear 67 19.4 48 8.9 51 51 ENE 6 9 29.77 1008 10 16 N/A
5:51 am 05:51 Clear 65 18.3 48 8.9 54 54 ESE 5 7 29.80 1009 10 16 N/A
6:51 am 06:51 Sunny 68 20 50 10 53 53 N N/A 29.82 1010 10 16 N/A
7:51 am 07:51 Sunny 74 23.3 49 9.4 41 41 SSE 3 6 29.82 1010 10 16 N/A
8:51 am 08:51 Sunny 79 26.1 49 9.4 35 35 N N/A 29.83 1010 10 16 N/A
9:51 am 09:51 Sunny 86 30 50 10 29 29 WSW 5 7 29.82 1010 10 16 N/A
10:51 am 10:51 Sunny 92 33.3 49 9.4 23 23 WNW 13 20 29.80 1009 10 16 N/A
11:51 am 11:51 Sunny 95 35 46 7.8 19 19 WNW 15 24 29.78 1008 10 16 N/A
12:51 pm 12:51 Sunny 97 36.1 44 6.7 16 16 W 14 22 29.74 1007 10 16 N/A
1:51 pm 13:51 Sunny 98 36.7 44 6.7 16 16 WNW 9 15 29.70 1006 10 16 N/A
2:51 pm 14:51 Sunny 99 37.2 43 6.1 15 15 WNW 6 9 29.68 1005 10 16 N/A
3:51 pm 15:51 Sunny 98 36.7 42 5.6 15 15 NW 10 17 29.68 1005 10 16 N/A
4:51 pm 16:51 Sunny 96 35.6 43 6.1 16 16 NW 10 17 29.68 1005 10 16 N/A
5:51 pm 17:51 Sunny 94 34.4 42 5.6 17 17 NW 12 19 29.69 1006 10 16 N/A
6:51 pm 18:51 Clear 87 30.6 43 6.1 21 21 WNW 9 15 29.71 1006 10 16 N/A
7:51 pm 19:51 Clear 81 27.2 45 7.2 28 28 NW 10 17 29.74 1007 10 16 N/A
8:51 pm 20:51 Clear 80 26.7 45 7.2 29 29 NW 10 17 29.75 1008 10 16 N/A
9:51 pm 21:51 Clear 76 24.4 45 7.2 33 33 NNW 9 15 29.76 1008 10 16 N/A
10:51 pm 22:51 Clear 75 23.9 44 6.7 33 33 NNW 10 17 29.74 1007 10 16 N/A
11:51 pm 23:51 Clear 73 22.8 44 6.7 35 35 NW 8 13 29.74 1007 10 16 N/A

Powered by AerisWeather